Von / Nach
Hinflug - Rückflug
Erwachsene / Kinder
Promocode
Nächste Ankünfte Flughafen St.Gallen-Altenrhein

ZeitErw.vonFlugInfo
13:3513:27OlbiaPE525
gelandet
13:3513:27CagliariPE525
gelandet
Nächste Abflüge Flughafen St.Gallen-Altenrhein

ZeitGeplantnachFlugInfo
08:3008:50CagliariPE524
abgeflogen
08:3008:50OlbiaPE524
abgeflogen

Flugplan

Bitte wählen Sie Ihren gewünschten Abflug- und Zielflughafen aus.


Live aus Altenrhein
LIVE
LSZR 190550Z 24003KT 200V280 9999 OVC010 14/13 Q1019 NOSIG RMK A
Zeitraffer heute
2020-09-19 00:14:15
LSZR 182150Z AUTO VRB01KT 5000 NCD 15/14 Q1021
Zeitraffer gestern
2020-09-18 00:14:59
LSZR 172150Z AUTO VRB01KT CAVOK 19/16 Q1021

Wien

Ab EUR 119.- pro Strecke.

 

Jetzt buchen

Ibiza

Ab EUR 279.- hin & zurück.

 

Jetzt buchen

Mallorca

Ab EUR 349.- hin & zurück.

 

Jetzt buchen

Pula

Ab EUR 399.- hin & zurück.

 

Jetzt buchen

Sardinien

Ab EUR 299.- hin & zurück.

 

Jetzt buchen

General Aviation

Business & General Aviation LSZR.

 

More information

 

 Shuttlebus


Nutzen Sie unseren

Shuttlebus zwischen Altenrhein

und Dornbirn & Bregenz.

 

Mehr dazu

 

People's Online-Shop


Von der Überraschung an

Bord über Badetücher bis

zum Flugzeugmodell.

 

Mehr dazu


News


Aktuelles von People's

und dem Flughafen

St.Gallen-Altenrhein.

 

Mehr dazu

 

Ad-hoc Charter


Chartern Sie eine unserer

Embraer170 für Ihren eigenen

Anlass oder ACMI-Einsätze.


Mehr dazu

  

 

Teile dein People's-Erlebnis mit uns:

 

#peoplesairline bei Instagram